When you browse on this site, cookies collect data to enhance your experience and personalize the content and advertising you see.
Visit our Privacy Policy to learn more. By continuing to use the site, you agree to this use of cookies and data.
  • In Romania
  • List of Countries
  • For 7 days
  • Water Temperature
  • Satellite Maps
  • Weather Map
  • Weather Widgets
  • user-avatar
    Login

    Hourly Weather Saint-Malo

    Today, 20 June, Thursday

    Time Temperature Precipitation Wind Pressure Humidity
    00:00 +10°C° 0 mm 6 mps 760 mmHg 95%
    01:00 +10°C° 0 mm 5 mps 760 mmHg 95%
    02:00 +9°C° 0 mm 5 mps 760 mmHg 95%
    03:00 +9°C° 0 mm 5 mps 760 mmHg 95%
    04:00 +10°C° 0 mm 5 mps 760 mmHg 94%
    05:00 +10°C° 0 mm 5 mps 761 mmHg 94%
    06:00 +12°C° 0 mm 5 mps 761 mmHg 93%
    07:00 +13°C° 0 mm 5 mps 761 mmHg 86%
    08:00 +15°C° 0 mm 5 mps 761 mmHg 79%
    09:00 +16°C° 0 mm 5 mps 761 mmHg 73%
    10:00 +17°C° 0 mm 4 mps 762 mmHg 71%
    11:00 +18°C° 0 mm 4 mps 762 mmHg 70%
    12:00 +18°C° 0 mm 4 mps 762 mmHg 69%
    13:00 +18°C° 0.1 mm 4 mps 762 mmHg 70%
    14:00 +18°C° 0.1 mm 4 mps 762 mmHg 72%
    15:00 +16°C° 0.1 mm 5 mps 762 mmHg 74%
    16:00 +16°C° 0 mm 5 mps 762 mmHg 75%
    17:00 +15°C° 0 mm 5 mps 762 mmHg 75%
    18:00 +15°C° 0 mm 5 mps 762 mmHg 76%
    19:00 +14°C° 0 mm 4 mps 763 mmHg 81%
    20:00 +12°C° 0 mm 4 mps 763 mmHg 85%
    21:00 +11°C° 0 mm 3 mps 763 mmHg 90%
    22:00 +10°C° 0 mm 3 mps 764 mmHg 90%
    23:00 +10°C° 0 mm 3 mps 764 mmHg 91%

    Tomorrow, 21 June, Friday

    Time Temperature Precipitation Wind Pressure Humidity
    00:00 +10°C° 0 mm 3 mps 764 mmHg 92%
    01:00 +9°C° 0 mm 3 mps 764 mmHg 92%
    02:00 +9°C° 0 mm 3 mps 764 mmHg 93%
    03:00 +9°C° 0 mm 3 mps 764 mmHg 93%
    04:00 +10°C° 0 mm 3 mps 764 mmHg 92%
    05:00 +10°C° 0 mm 3 mps 764 mmHg 91%
    06:00 +11°C° 0 mm 3 mps 765 mmHg 90%
    07:00 +13°C° 0 mm 3 mps 765 mmHg 83%
    08:00 +14°C° 0 mm 3 mps 765 mmHg 76%
    09:00 +17°C° 0 mm 3 mps 765 mmHg 70%
    10:00 +18°C° 0 mm 3 mps 765 mmHg 68%
    11:00 +18°C° 0 mm 3 mps 765 mmHg 65%
    12:00 +19°C° 0 mm 3 mps 765 mmHg 63%
    13:00 +19°C° 0 mm 3 mps 765 mmHg 64%
    14:00 +19°C° 0 mm 4 mps 765 mmHg 66%
    15:00 +18°C° 0 mm 4 mps 765 mmHg 67%
    16:00 +18°C° 0 mm 4 mps 765 mmHg 70%
    17:00 +17°C° 0 mm 4 mps 765 mmHg 73%
    18:00 +15°C° 0 mm 4 mps 765 mmHg 75%
    19:00 +14°C° 0 mm 4 mps 765 mmHg 80%
    20:00 +12°C° 0 mm 3 mps 766 mmHg 84%
    21:00 +11°C° 0 mm 3 mps 766 mmHg 88%
    22:00 +10°C° 0 mm 3 mps 766 mmHg 89%
    23:00 +10°C° 0 mm 2 mps 766 mmHg 89%

    Day after tomorrow, 22 June, Saturday

    Time Temperature Precipitation Wind Pressure Humidity
    00:00 +10°C° 0 mm 2 mps 766 mmHg 90%
    01:00 +9°C° 0 mm 2 mps 765 mmHg 91%
    02:00 +9°C° 0 mm 2 mps 765 mmHg 92%
    03:00 +9°C° 0 mm 2 mps 765 mmHg 92%
    04:00 +10°C° 0 mm 2 mps 765 mmHg 92%
    05:00 +11°C° 0 mm 3 mps 765 mmHg 91%
    06:00 +12°C° 0 mm 3 mps 765 mmHg 91%
    07:00 +13°C° 0 mm 3 mps 765 mmHg 83%
    08:00 +16°C° 0 mm 3 mps 765 mmHg 76%
    09:00 +18°C° 0 mm 3 mps 764 mmHg 69%
    10:00 +19°C° 0 mm 3 mps 764 mmHg 65%
    11:00 +20°C° 0 mm 3 mps 764 mmHg 61%
    12:00 +21°C° 0 mm 2 mps 763 mmHg 58%
    13:00 +22°C° 0 mm 3 mps 763 mmHg 58%
    14:00 +22°C° 0 mm 3 mps 763 mmHg 58%
    15:00 +22°C° 0 mm 4 mps 762 mmHg 58%
    16:00 +21°C° 0 mm 4 mps 762 mmHg 64%
    17:00 +20°C° 0 mm 4 mps 762 mmHg 70%
    18:00 +19°C° 0 mm 5 mps 762 mmHg 76%
    19:00 +19°C° 0 mm 5 mps 763 mmHg 78%
    20:00 +17°C° 0 mm 5 mps 763 mmHg 80%
    21:00 +16°C° 0 mm 6 mps 763 mmHg 81%
    22:00 +15°C° 0 mm 5 mps 762 mmHg 85%
    23:00 +15°C° 0 mm 5 mps 762 mmHg 89%

    23 June, Sunday

    Time Temperature Precipitation Wind Pressure Humidity
    00:00 +14°C° 0 mm 4 mps 762 mmHg 93%
    01:00 +14°C° 0 mm 4 mps 762 mmHg 93%
    02:00 +14°C° 0 mm 3 mps 762 mmHg 93%
    03:00 +14°C° 0 mm 3 mps 761 mmHg 93%
    04:00 +16°C° 0 mm 3 mps 761 mmHg 92%
    05:00 +16°C° 0 mm 3 mps 761 mmHg 91%
    06:00 +17°C° 0 mm 2 mps 761 mmHg 90%
    07:00 +19°C° 0 mm 2 mps 761 mmHg 86%
    08:00 +20°C° 0 mm 2 mps 761 mmHg 82%
    09:00 +23°C° 0 mm 2 mps 761 mmHg 78%
    10:00 +24°C° 0 mm 2 mps 761 mmHg 73%
    11:00 +25°C° 0 mm 2 mps 761 mmHg 68%
    12:00 +26°C° 0 mm 3 mps 761 mmHg 64%
    13:00 +26°C° 0 mm 3 mps 761 mmHg 65%
    14:00 +26°C° 0 mm 3 mps 760 mmHg 67%
    15:00 +26°C° 0 mm 3 mps 760 mmHg 68%
    16:00 +26°C° 0 mm 3 mps 760 mmHg 71%
    17:00 +26°C° 0 mm 3 mps 759 mmHg 74%
    18:00 +26°C° 0 mm 3 mps 759 mmHg 77%
    19:00 +25°C° 0 mm 3 mps 759 mmHg 82%
    20:00 +22°C° 0 mm 4 mps 759 mmHg 87%
    21:00 +21°C° 0 mm 4 mps 760 mmHg 92%
    22:00 +21°C° 0 mm 4 mps 759 mmHg 92%
    23:00 +20°C° 0 mm 5 mps 759 mmHg 91%

    24 June, Monday

    Time Temperature Precipitation Wind Pressure Humidity
    00:00 +20°C° 0 mm 5 mps 759 mmHg 91%
    01:00 +20°C° 0 mm 5 mps 759 mmHg 90%
    02:00 +20°C° 0 mm 4 mps 759 mmHg 89%
    03:00 +20°C° 0 mm 4 mps 759 mmHg 88%
    04:00 +20°C° 0.2 mm 3 mps 759 mmHg 89%
    05:00 +20°C° 0.2 mm 2 mps 760 mmHg 90%
    06:00 +21°C° 0.2 mm 1 mps 760 mmHg 91%
    07:00 +22°C° 0.1 mm 1 mps 760 mmHg 88%
    08:00 +23°C° 0.1 mm 1 mps 760 mmHg 84%
    09:00 +24°C° 0.1 mm 1 mps 760 mmHg 81%
    10:00 +24°C° 0 mm 2 mps 761 mmHg 80%
    11:00 +24°C° 0 mm 3 mps 761 mmHg 79%
    12:00 +23°C° 0 mm 4 mps 761 mmHg 78%
    13:00 +23°C° 0 mm 5 mps 761 mmHg 78%
    14:00 +23°C° 0 mm 5 mps 761 mmHg 78%
    15:00 +22°C° 0 mm 6 mps 760 mmHg 78%
    16:00 +22°C° 0.1 mm 6 mps 760 mmHg 80%
    17:00 +21°C° 0.1 mm 7 mps 760 mmHg 82%
    18:00 +20°C° 0.1 mm 7 mps 760 mmHg 84%
    19:00 +20°C° 0 mm 7 mps 761 mmHg 86%
    20:00 +19°C° 0 mm 6 mps 761 mmHg 87%
    21:00 +19°C° 0 mm 6 mps 761 mmHg 88%
    22:00 +17°C° 0 mm 6 mps 761 mmHg 90%
    23:00 +17°C° 0 mm 5 mps 761 mmHg 92%

    25 June, Tuesday

    Time Temperature Precipitation Wind Pressure Humidity
    00:00 +16°C° 0 mm 5 mps 761 mmHg 95%
    01:00 +16°C° 0 mm 5 mps 761 mmHg 94%
    02:00 +16°C° 0 mm 5 mps 761 mmHg 93%
    03:00 +16°C° 0 mm 6 mps 761 mmHg 92%
    04:00 +17°C° 0 mm 6 mps 761 mmHg 92%
    05:00 +17°C° 0 mm 6 mps 761 mmHg 92%
    06:00 +17°C° 0 mm 5 mps 762 mmHg 92%
    07:00 +19°C° 0 mm 5 mps 762 mmHg 89%
    08:00 +20°C° 0 mm 4 mps 762 mmHg 86%
    09:00 +21°C° 0 mm 3 mps 762 mmHg 84%
    10:00 +21°C° 0 mm 3 mps 763 mmHg 81%
    11:00 +22°C° 0 mm 3 mps 763 mmHg 79%
    12:00 +24°C° 0 mm 3 mps 763 mmHg 77%
    13:00 +22°C° 0.1 mm 3 mps 763 mmHg 78%
    14:00 +22°C° 0.1 mm 3 mps 763 mmHg 79%
    15:00 +22°C° 0.1 mm 3 mps 764 mmHg 80%
    16:00 +21°C° 0 mm 3 mps 764 mmHg 81%
    17:00 +21°C° 0 mm 3 mps 764 mmHg 81%
    18:00 +20°C° 0 mm 3 mps 764 mmHg 82%
    19:00 +20°C° 0 mm 4 mps 764 mmHg 84%
    20:00 +19°C° 0 mm 4 mps 765 mmHg 86%
    21:00 +18°C° 0 mm 4 mps 766 mmHg 88%
    22:00 +18°C° 0 mm 4 mps 765 mmHg 89%
    23:00 +18°C° 0 mm 4 mps 765 mmHg 89%
    Show more